Weather History for KDRO - November, 2014

Change the Weather History Date:

Thursday, November 20, 2014

  Actual Average Record
Temperature  
Mean Temperature 32 °F 34 °F  
Max Temperature 47 °F 47 °F 69 °F (1989)
Min Temperature 16 °F 21 °F 2 °F (1985)
Degree Days  
Heating Degree Days 33 31  
Month to date heating degree days 528 554  
Since 1 July heating degree days 1101 1342  
Cooling Degree Days 0 0  
Month to date cooling degree days 0 0  
Year to date cooling degree days 305 243  
Moisture  
Dew Point 17 °F    
Average Humidity 55    
Maximum Humidity 84    
Minimum Humidity 25    
Precipitation  
Precipitation 0.00 in 0.06 in 0.51 in (2004)
Month to date precipitation 0.99 1.17  
Year to date precipitation 11.34 14.39  
Sea Level Pressure  
Sea Level Pressure 30.19 in    
Wind  
Wind Speed 3 mph (NE)    
Max Wind Speed 10 mph    
Max Gust Speed 12 mph    
Visibility 10 miles    
Events      
T = Trace of Precipitation, MM = Missing Value Source: NWS Daily Summary

Daily Weather History Graph

Daily Weather History Graph

Search for Another Location

Airport or City:

Trip Planner

Search our weather history database for the weather conditions in past years. The results will help you decide how hot, cold, wet, or windy it might be!

Date:

Astronomy

Nov. 20, 2014 Rise Set
Actual Time 6:55 AM MST 4:57 PM MST
Civil Twilight 6:27 AM MST 5:25 PM MST
Nautical Twilight 5:55 AM MST 5:57 PM MST
Astronomical Twilight 5:24 AM MST 6:28 PM MST
Moon 4:56 AM MST (11/20) 4:01 PM MST (11/20)
Length of Visible Light 10h 58m
Length of Day
10h 02m
Waning Crescent, 3% of the Moon is Illuminated
Nov 20
Waning Crescent
Nov 22
New
Nov 29
First Quarter
Dec 6
Full
Dec 14
Last Quarter

Hourly Weather History & Observations

Time (MST) Temp. Windchill Dew Point Humidity Pressure Visibility Wind Dir Wind Speed Gust Speed Precip Events Conditions
12:53 AM 24.1 °F 19.7 °F 17.1 °F 75% 30.22 in 10.0 mi NNE 3.5 mph - N/A   Clear
1:53 AM 19.0 °F 13.9 °F 16.0 °F 88% 30.23 in 10.0 mi ENE 3.5 mph - N/A   Clear
2:53 AM 21.0 °F 16.2 °F 17.1 °F 85% 30.22 in 10.0 mi North 3.5 mph - N/A   Clear
3:53 AM 19.0 °F 13.9 °F 16.0 °F 88% 30.20 in 10.0 mi East 3.5 mph - N/A   Clear
4:53 AM 19.9 °F - 15.1 °F 81% 30.20 in 10.0 mi Calm Calm - N/A   Clear
5:53 AM 19.0 °F - 15.1 °F 85% 30.25 in 10.0 mi Calm Calm - N/A   Clear
6:53 AM 17.1 °F 10.0 °F 14.0 °F 88% 30.30 in 10.0 mi ENE 4.6 mph - N/A   Clear
7:53 AM 25.0 °F - 19.0 °F 78% 30.27 in 10.0 mi Calm Calm - N/A   Overcast
8:53 AM 28.0 °F 22.8 °F 21.0 °F 75% 30.26 in 10.0 mi NE 4.6 mph - N/A   Overcast
9:53 AM 33.1 °F - 19.9 °F 59% 30.26 in 10.0 mi Calm Calm - N/A   Overcast
10:53 AM 37.0 °F - 18.0 °F 46% 30.22 in 10.0 mi Calm Calm - N/A   Overcast
11:53 AM 41.0 °F 39.0 °F 16.0 °F 36% 30.17 in 10.0 mi SSE 3.5 mph - N/A   Scattered Clouds
12:53 PM 44.1 °F 41.5 °F 15.1 °F 31% 30.12 in 10.0 mi WSW 4.6 mph - N/A   Clear
1:53 PM 45.0 °F 42.6 °F 14.0 °F 29% 30.12 in 10.0 mi SW 4.6 mph - N/A   Partly Cloudy
2:53 PM 46.0 °F 43.9 °F 12.0 °F 25% 30.10 in 10.0 mi Variable 4.6 mph - N/A   Mostly Cloudy
3:53 PM 45.0 °F 43.5 °F 15.1 °F 30% 30.12 in 10.0 mi Variable 3.5 mph - N/A   Mostly Cloudy
4:53 PM 43.0 °F 40.3 °F 17.1 °F 35% 30.13 in 10.0 mi ENE 4.6 mph - N/A   Overcast
5:53 PM 41.0 °F 39.0 °F 15.1 °F 35% 30.16 in 10.0 mi ENE 3.5 mph - N/A   Overcast
6:53 PM 32.0 °F 28.7 °F 19.0 °F 59% 30.21 in 10.0 mi NNE 3.5 mph - N/A   Scattered Clouds
7:53 PM 32.0 °F 23.6 °F 18.0 °F 56% 30.17 in 10.0 mi North 10.4 mph - N/A   Clear
8:53 PM 28.9 °F - 17.1 °F 61% 30.18 in 10.0 mi Calm Calm - N/A   Mostly Cloudy
9:53 PM 28.0 °F 20.8 °F 19.0 °F 69% 30.16 in 10.0 mi NNE 6.9 mph - N/A   Partly Cloudy
10:53 PM 25.0 °F 20.7 °F 18.0 °F 75% 30.15 in 10.0 mi ENE 3.5 mph - N/A   Mostly Cloudy
11:53 PM 27.0 °F 23.0 °F 19.0 °F 72% 30.13 in 10.0 mi NNE 3.5 mph - N/A   Mostly Cloudy